Flag for U.S.A. Weather past 2 weeks in Sheboygan, Wisconsin, U.S.A.

Now
54 °F

Light rain. Fog.


Feels Like: 53 °F
Forecast: 50 / 69 °F
Wind: 5 mph from Southeast

Location: Sheboygan County Memorial Airport

Current Time: May 25, 2015 at 6:38:32 AM

Latest Report: May 25, 2015 at 5:53 AM


Visibility: 1 mi

Pressure: 29.81 "Hg

Humidity: 100%

Dew point: 54 °F

Location of SheboyganLocation

Historic Weather in Sheboygan — Graph

°F

Sheboygan temperature yesterday

Maximum temperature yesterday: 68 °F (at 9:53 AM)
Minimum temperature yesterday: 44 °F (at 3:53 AM)
Average temperature yesterday: 56 °F

Past Weeks' High & Low Weather Summary

 TemperatureHumidityPressure
High74 °F (May 23, 1:53 PM)100% (May 11, 1:53 AM)30.51 "Hg (May 11, 1:53 AM)
Low30 °F (May 20, 4:53 AM)28% (May 21, 3:53 PM)29.68 "Hg (May 11, 4:53 PM)
Average52 °F71%30.09 "Hg
* Reported May 10 5:53 AM — May 25 5:02 AM, Sheboygan, Weather by CustomWeather, © 2015

Note: Actual official high and low records may vary slightly from our data, if they occured in-between our weather recording intervals... More about our weather records

Advertising

Sheboygan weather history for previous 24 hours

 ConditionsComfort  
Time TempWeatherWind HumidityBarometerVisibility
5:02 AM
Mon, May 25
54 °FFog.3 mph97%29.82 "Hg2 mi
4:53 AM55 °FFog.No wind96%29.82 "Hg3 mi
3:53 AM55 °FFog.No wind96%29.83 "Hg3 mi
3:04 AM55 °FLight rain. Fog.No wind93%29.84 "Hg3 mi
2:53 AM55 °FFog.No wind93%29.84 "Hg3 mi
1:53 AM55 °FLight rain. Fog.No wind93%29.86 "Hg3 mi
12:53 AM54 °FLight rain. Fog.No wind100%29.90 "Hg3 mi
12:00 AM54 °FFog.3 mph97%29.92 "Hg6 mi
11:02 PM
Sun, May 24
54 °FRain. Fog.3 mph97%29.95 "Hg2 mi
10:53 PM54 °FRain. Fog.3 mph97%29.95 "Hg4 mi
10:04 PM55 °FLight rain. Fog.7 mph96%29.96 "Hg5 mi
9:53 PM56 °FLight rain. Fog.6 mph93%29.97 "Hg6 mi
9:02 PM56 °FHeavy rain. Fog.9 mph93%29.97 "Hg2 mi
9:00 PM56 °FHeavy rain. Fog.12 mph93%29.98 "Hg2 mi
7:53 PM55 °FLight rain. Fog.9 mph93%29.99 "Hg4 mi
6:53 PM55 °FRain. Fog.8 mph93%30.02 "Hg3 mi
5:53 PM54 °FLight rain. Fog.8 mph93%30.05 "Hg2 mi
5:01 PM56 °FRain. Fog.6 mph93%30.08 "Hg2 mi
3:53 PM59 °FLight rain. Fog.7 mph90%30.09 "Hg4 mi
2:53 PM61 °FLight rain. Cloudy.6 mph83%30.11 "Hg8 mi
1:53 PM63 °FLight rain. Overcast.5 mph78%30.13 "Hg10 mi
12:53 PM63 °FLight rain. Overcast.6 mph81%30.16 "Hg7 mi
11:53 AM64 °FLight rain. More clouds than sun.5 mph68%30.18 "Hg10 mi
10:53 AM66 °FLight rain. Mostly cloudy.18 mph63%30.19 "Hg10 mi
9:53 AM68 °FMostly cloudy.12 mph57%30.16 "Hg10 mi
8:53 AM67 °FPartly sunny.3 mph57%30.14 "Hg10 mi
7:53 AM60 °FCool.No wind62%30.16 "Hg10 mi
6:53 AM54 °FSunny.No wind74%30.16 "Hg10 mi
Weather by CustomWeather, © 2015

See weather overviewHow to use our weather pages